M I D A S
Marine Information and Data Acquisition System
Tripno 1556 of the Zeeleeuw from 2008-09-01 06:18:01 to 2008-09-01 11:25:58
Back to CruiseResearch ActivitiesStationsMapUnderway DataData graphs

EquipmentUnitsComments
TimeDGPSUTC
LatitudeDGPSDM.mWGS84
LongitudeDGPSDM.mWGS84
SpeedMeteo Stationm/sRelative wind speed
DirectionMeteo StationdegRelative wind direction
TemperatureMeteo Stationdeg CelciusAir temperature
PressureMeteo StationPaAtmospheric pressure
HumidityMeteo Station%Relative humidity
Missing or incorrect values are displayed as -999
Metereological data collected by the RV Zeeleeuw from 2008-09-01 06:21:17 to 2008-09-01 11:32:14
                                                                                    Next 1000 lines
Time Latitude Longitude Speed Direction Temperature Pressure Humidity
2008-09-01 06:21:26 51°13.624 2°56.043 -999 -999 -999 -999 -999
2008-09-01 06:21:32 51°13.625 2°56.04 -999 -999 -999 -999 -999
2008-09-01 06:21:36 51°13.626 2°56.038 -999 -999 -999 -999 -999
2008-09-01 06:21:41 51°13.627 2°56.034 -999 -999 -999 -999 -999
2008-09-01 06:21:46 51°13.629 2°56.029 -999 -999 -999 -999 -999
2008-09-01 06:21:52 51°13.632 2°56.023 -999 -999 -999 -999 -999
2008-09-01 06:21:57 51°13.635 2°56.017 -999 -999 -999 -999 -999
2008-09-01 06:22:01 51°13.636 2°56.012 -999 -999 -999 -999 -999
2008-09-01 06:22:06 51°13.638 2°56.005 -999 -999 -999 -999 -999
2008-09-01 06:22:11 51°13.64 2°55.998 -999 -999 -999 -999 -999
2008-09-01 06:22:17 51°13.643 2°55.988 -999 -999 -999 -999 -999
2008-09-01 06:22:21 51°13.644 2°55.982 -999 -999 -999 -999 -999
2008-09-01 06:22:27 51°13.647 2°55.972 -999 -999 -999 -999 -999
2008-09-01 06:22:31 51°13.649 2°55.965 -999 -999 -999 -999 -999
2008-09-01 06:22:37 51°13.652 2°55.955 -999 -999 -999 -999 -999
2008-09-01 06:22:42 51°13.654 2°55.946 -999 -999 -999 -999 -999
2008-09-01 06:22:47 51°13.656 2°55.937 -999 -999 -999 -999 -999
2008-09-01 06:22:52 51°13.659 2°55.927 -999 -999 -999 -999 -999
2008-09-01 06:22:56 51°13.662 2°55.92 -999 -999 -999 -999 -999
2008-09-01 06:23:02 51°13.665 2°55.908 -999 -999 -999 -999 -999
2008-09-01 06:23:07 51°13.668 2°55.898 -999 -999 -999 -999 -999
2008-09-01 06:23:12 51°13.671 2°55.889 -999 -999 -999 -999 -999
2008-09-01 06:23:16 51°13.673 2°55.883 -999 -999 -999 -999 -999
2008-09-01 06:23:22 51°13.677 2°55.872 -999 -999 -999 -999 -999
2008-09-01 06:23:27 51°13.679 2°55.864 -999 -999 -999 -999 -999
2008-09-01 06:23:32 51°13.682 2°55.856 -999 -999 -999 -999 -999
2008-09-01 06:23:37 51°13.685 2°55.848 -999 -999 -999 -999 -999
2008-09-01 06:23:41 51°13.686 2°55.841 -999 -999 -999 -999 -999
2008-09-01 06:23:47 51°13.69 2°55.832 -999 -999 -999 -999 -999
2008-09-01 06:23:52 51°13.693 2°55.824 -999 -999 -999 -999 -999
2008-09-01 06:23:57 51°13.695 2°55.817 -999 -999 -999 -999 -999
2008-09-01 06:24:01 51°13.697 2°55.811 -999 -999 -999 -999 -999
2008-09-01 06:24:06 51°13.699 2°55.803 -999 -999 -999 -999 -999
2008-09-01 06:24:12 51°13.701 2°55.795 -999 -999 -999 -999 -999
2008-09-01 06:24:17 51°13.702 2°55.788 -999 -999 -999 -999 -999
2008-09-01 06:24:21 51°13.703 2°55.783 -999 -999 -999 -999 -999
2008-09-01 06:24:26 51°13.704 2°55.777 -999 -999 -999 -999 -999
2008-09-01 06:24:31 51°13.706 2°55.771 -999 -999 -999 -999 -999
2008-09-01 06:24:37 51°13.707 2°55.764 -999 -999 -999 -999 -999
2008-09-01 06:24:41 51°13.707 2°55.759 -999 -999 -999 -999 -999
2008-09-01 06:24:46 51°13.708 2°55.753 -999 -999 -999 -999 -999
2008-09-01 06:24:51 51°13.709 2°55.748 -999 -999 -999 -999 -999
2008-09-01 06:24:57 51°13.709 2°55.742 -999 -999 -999 -999 -999
2008-09-01 06:25:01 51°13.71 2°55.738 -999 -999 -999 -999 -999
2008-09-01 06:25:06 51°13.71 2°55.734 -999 -999 -999 -999 -999
2008-09-01 06:25:11 51°13.711 2°55.73 -999 -999 -999 -999 -999
2008-09-01 06:25:17 51°13.711 2°55.726 -999 -999 -999 -999 -999
2008-09-01 06:25:21 51°13.712 2°55.724 -999 -999 -999 -999 -999
2008-09-01 06:25:26 51°13.712 2°55.723 -999 -999 -999 -999 -999
2008-09-01 06:25:31 51°13.713 2°55.723 -999 -999 -999 -999 -999
2008-09-01 06:25:36 51°13.714 2°55.724 -999 -999 -999 -999 -999
2008-09-01 06:25:41 51°13.716 2°55.725 -999 -999 -999 -999 -999
2008-09-01 06:25:46 51°13.717 2°55.727 -999 -999 -999 -999 -999
2008-09-01 06:25:51 51°13.718 2°55.728 -999 -999 -999 -999 -999
2008-09-01 06:25:57 51°13.718 2°55.728 -999 -999 -999 -999 -999
2008-09-01 06:26:01 51°13.718 2°55.728 -999 -999 -999 -999 -999
2008-09-01 06:26:06 51°13.718 2°55.727 -999 -999 -999 -999 -999
2008-09-01 06:26:12 51°13.717 2°55.724 -999 -999 -999 -999 -999
2008-09-01 06:26:17 51°13.716 2°55.722 -999 -999 -999 -999 -999
2008-09-01 06:26:21 51°13.715 2°55.72 -999 -999 -999 -999 -999
2008-09-01 06:26:26 51°13.713 2°55.717 -999 -999 -999 -999 -999
2008-09-01 06:26:32 51°13.712 2°55.714 -999 -999 -999 -999 -999
2008-09-01 06:26:37 51°13.71 2°55.711 -999 -999 -999 -999 -999
2008-09-01 06:26:42 51°13.71 2°55.709 -999 -999 -999 -999 -999
2008-09-01 06:26:46 51°13.71 2°55.709 -999 -999 -999 -999 -999
2008-09-01 06:26:52 51°13.71 2°55.708 -999 -999 -999 -999 -999
2008-09-01 06:26:57 51°13.711 2°55.707 -999 -999 -999 -999 -999
2008-09-01 06:27:02 51°13.713 2°55.707 -999 -999 -999 -999 -999
2008-09-01 06:27:07 51°13.716 2°55.707 -999 -999 -999 -999 -999
2008-09-01 06:27:11 51°13.718 2°55.707 -999 -999 -999 -999 -999
2008-09-01 06:27:17 51°13.723 2°55.706 -999 -999 -999 -999 -999
2008-09-01 06:27:21 51°13.727 2°55.704 -999 -999 -999 -999 -999
2008-09-01 06:27:27 51°13.734 2°55.701 -999 -999 -999 -999 -999
2008-09-01 06:27:31 51°13.738 2°55.698 -999 -999 -999 -999 -999
2008-09-01 06:27:37 51°13.747 2°55.693 -999 -999 -999 -999 -999
2008-09-01 06:27:41 51°13.753 2°55.689 -999 -999 -999 -999 -999
2008-09-01 06:27:46 51°13.761 2°55.683 -999 -999 -999 -999 -999
2008-09-01 06:27:51 51°13.769 2°55.676 -999 -999 -999 -999 -999
2008-09-01 06:27:56 51°13.778 2°55.671 -999 -999 -999 -999 -999
2008-09-01 06:28:01 51°13.787 2°55.664 -999 -999 -999 -999 -999
2008-09-01 06:28:06 51°13.797 2°55.657 -999 -999 -999 -999 -999
2008-09-01 06:28:12 51°13.808 2°55.648 -999 -999 -999 -999 -999
2008-09-01 06:28:17 51°13.818 2°55.641 -999 -999 -999 -999 -999
2008-09-01 06:28:21 51°13.826 2°55.636 -999 -999 -999 -999 -999
2008-09-01 06:28:26 51°13.837 2°55.629 -999 -999 -999 -999 -999
2008-09-01 06:28:32 51°13.85 2°55.621 -999 -999 -999 -999 -999
2008-09-01 06:28:37 51°13.861 2°55.613 -999 -999 -999 -999 -999
2008-09-01 06:28:41 51°13.87 2°55.607 -999 -999 -999 -999 -999
2008-09-01 06:28:46 51°13.882 2°55.599 -999 -999 -999 -999 -999
2008-09-01 06:28:52 51°13.895 2°55.59 -999 -999 -999 -999 -999
2008-09-01 06:28:57 51°13.906 2°55.581 8 7 -999 -999 -999
2008-09-01 06:29:01 51°13.915 2°55.575 3.1 324 -999 -999 -999
2008-09-01 06:29:06 51°13.926 2°55.568 9.5 330 -999 -999 -999
2008-09-01 06:29:11 51°13.939 2°55.559 9.9 323 -999 -999 -999
2008-09-01 06:29:16 51°13.95 2°55.551 5 251 -999 -999 -999
2008-09-01 06:29:21 51°13.961 2°55.543 3 332 15.7 -999 56
2008-09-01 06:29:26 51°13.973 2°55.536 7.8 39 15.7 -999 56
2008-09-01 06:29:31 51°13.984 2°55.528 7.7 317 15.8 -999 73
2008-09-01 06:29:36 51°13.996 2°55.52 6.7 36 15.8 -999 73
2008-09-01 06:29:41 51°14.008 2°55.512 5.4 280 15.8 101390 72
2008-09-01 06:29:46 51°14.019 2°55.505 5.2 319 15.8 101390 72
2008-09-01 06:29:50 51°14.028 2°55.498 7.4 25 15.9 101390 72
2008-09-01 06:29:56 51°14.042 2°55.488 7.3 244 15.9 101390 72
2008-09-01 06:30:01 51°14.053 2°55.479 8.4 27 15.9 101390 72
2008-09-01 06:30:05 51°14.062 2°55.472 8.3 249 15.9 101390 72
2008-09-01 06:30:10 51°14.073 2°55.463 9.5 28 15.9 101390 72
2008-09-01 06:30:15 51°14.084 2°55.454 12.4 321 15.9 101390 72
2008-09-01 06:30:20 51°14.094 2°55.445 9.6 315 16 101390 72
2008-09-01 06:30:25 51°14.105 2°55.436 10.8 322 16 101390 72
2008-09-01 06:30:30 51°14.116 2°55.426 7.6 282 16 101390 71
2008-09-01 06:30:35 51°14.127 2°55.416 9.4 315 16 101390 71
2008-09-01 06:30:40 51°14.137 2°55.406 8.7 318 16 101390 71
2008-09-01 06:30:45 51°14.148 2°55.396 17.4 37 16 101390 71
2008-09-01 06:30:50 51°14.159 2°55.386 12.9 244 16 101380 71
2008-09-01 06:30:55 51°14.169 2°55.375 11.3 242 16 101380 71
2008-09-01 06:31:00 51°14.18 2°55.365 13.9 21 16.1 101390 71
2008-09-01 06:31:05 51°14.19 2°55.354 12 40 16.1 101390 71
2008-09-01 06:31:09 51°14.198 2°55.345 8 29 16.1 101390 71
2008-09-01 06:31:14 51°14.208 2°55.333 12.8 40 16.1 101390 71
2008-09-01 06:31:20 51°14.22 2°55.319 12.9 26 16.1 101360 71
2008-09-01 06:31:25 51°14.23 2°55.306 15.3 38 16.1 101360 71
2008-09-01 06:31:29 51°14.238 2°55.296 15.6 24 16.2 101430 71
2008-09-01 06:31:34 51°14.247 2°55.282 15.9 34 16.2 101430 71
2008-09-01 06:31:39 51°14.257 2°55.268 15.9 25 16.2 101390 72
2008-09-01 06:31:44 51°14.267 2°55.253 14.8 37 16.2 101390 72
2008-09-01 06:31:49 51°14.276 2°55.238 19 26 16.2 101380 72
2008-09-01 06:31:54 51°14.285 2°55.223 17.4 35 16.2 101380 72
2008-09-01 06:31:59 51°14.295 2°55.207 15.6 27 16.2 101380 72
2008-09-01 06:32:04 51°14.304 2°55.191 14.6 234 16.2 101380 72
2008-09-01 06:32:09 51°14.314 2°55.174 13.9 324 16.3 101370 72
2008-09-01 06:32:14 51°14.323 2°55.157 18.4 34 16.3 101370 72
2008-09-01 06:32:19 51°14.332 2°55.139 14 24 16.3 101370 71
2008-09-01 06:32:24 51°14.341 2°55.122 14.8 37 16.3 101370 71
2008-09-01 06:32:29 51°14.35 2°55.104 19.4 26 16.3 101370 72
2008-09-01 06:32:33 51°14.358 2°55.09 19.2 33 16.3 101370 72
2008-09-01 06:32:38 51°14.367 2°55.072 19.6 24 16.4 101370 72
2008-09-01 06:32:44 51°14.377 2°55.05 20.5 35 16.4 101370 72
2008-09-01 06:32:49 51°14.386 2°55.032 20.3 25 16.4 101370 72
2008-09-01 06:32:53 51°14.392 2°55.016 17.2 36 16.4 101370 72
2008-09-01 06:32:58 51°14.4 2°54.997 17.7 25 16.4 101330 73
2008-09-01 06:33:03 51°14.407 2°54.977 20.2 36 16.4 101330 73
2008-09-01 06:33:08 51°14.413 2°54.957 19.2 26 16.4 101330 72
2008-09-01 06:33:13 51°14.418 2°54.936 19.1 38 16.4 101330 72
2008-09-01 06:33:18 51°14.422 2°54.915 17.9 315 16.4 101330 71
2008-09-01 06:33:23 51°14.425 2°54.893 16 319 16.4 101330 71
2008-09-01 06:33:28 51°14.427 2°54.871 17.4 321 16.4 101320 72
2008-09-01 06:33:33 51°14.429 2°54.848 18.1 321 16.4 101320 72
2008-09-01 06:33:38 51°14.43 2°54.826 15.7 321 16.4 101340 71
2008-09-01 06:33:43 51°14.43 2°54.803 16.2 325 16.4 101340 71
2008-09-01 06:33:48 51°14.43 2°54.78 17.5 325 16.5 101330 72
2008-09-01 06:33:53 51°14.429 2°54.757 17.7 327 16.5 101330 72
2008-09-01 06:33:58 51°14.428 2°54.734 20.8 324 16.5 101340 73
2008-09-01 06:34:03 51°14.425 2°54.711 17.8 328 16.5 101340 73
2008-09-01 06:34:08 51°14.422 2°54.688 18.6 326 16.6 101340 73
2008-09-01 06:34:13 51°14.419 2°54.665 21 326 16.6 101340 73
2008-09-01 06:34:18 51°14.414 2°54.642 21.8 330 16.6 101350 73
2008-09-01 06:34:23 51°14.41 2°54.62 19.8 330 16.6 101350 73
2008-09-01 06:34:28 51°14.405 2°54.598 17.5 330 16.5 101340 72
2008-09-01 06:34:33 51°14.4 2°54.575 18.3 332 16.5 101340 72
2008-09-01 06:34:38 51°14.394 2°54.553 18 331 16.6 101350 72
2008-09-01 06:34:43 51°14.388 2°54.531 18.7 333 16.6 101350 72
2008-09-01 06:34:48 51°14.382 2°54.508 17.1 334 16.5 101350 71
2008-09-01 06:34:53 51°14.376 2°54.487 21.2 335 16.5 101350 71
2008-09-01 06:34:58 51°14.369 2°54.465 20.4 337 16.6 101360 72
2008-09-01 06:35:03 51°14.362 2°54.444 19.6 335 16.6 101360 72
2008-09-01 06:35:08 51°14.355 2°54.423 19.2 280 16.6 101370 73
2008-09-01 06:35:13 51°14.348 2°54.402 19 333 16.6 101370 73
2008-09-01 06:35:18 51°14.34 2°54.381 22 333 16.6 101360 72
2008-09-01 06:35:22 51°14.335 2°54.364 17.5 330 16.6 101360 72
2008-09-01 06:35:28 51°14.326 2°54.338 19.3 281 16.6 101380 71
2008-09-01 06:35:33 51°14.318 2°54.317 19.3 333 16.6 101380 71
2008-09-01 06:35:38 51°14.311 2°54.296 18.6 334 16.6 101370 71
2008-09-01 06:35:42 51°14.304 2°54.279 19.6 333 16.6 101370 71
2008-09-01 06:35:47 51°14.297 2°54.257 21 334 16.6 101370 70
2008-09-01 06:35:53 51°14.288 2°54.232 19.4 332 16.6 101370 70
2008-09-01 06:35:58 51°14.281 2°54.209 20.1 333 16.6 101370 71
2008-09-01 06:36:02 51°14.275 2°54.192 18.5 334 16.6 101370 71
2008-09-01 06:36:07 51°14.268 2°54.169 20.3 334 16.5 101390 70
2008-09-01 06:36:13 51°14.259 2°54.143 18.8 332 16.5 101390 70
2008-09-01 06:36:18 51°14.251 2°54.121 20.4 335 16.5 101370 69
2008-09-01 06:36:23 51°14.242 2°54.099 19.3 334 16.5 101370 69
2008-09-01 06:36:28 51°14.235 2°54.076 22.4 335 16.5 101370 69
2008-09-01 06:36:33 51°14.227 2°54.054 21.4 335 16.5 101370 69
2008-09-01 06:36:38 51°14.219 2°54.032 20.3 335 16.6 101380 69
2008-09-01 06:36:43 51°14.212 2°54.009 18.3 334 16.6 101380 69
2008-09-01 06:36:48 51°14.204 2°53.987 17.4 334 16.5 101340 68
2008-09-01 06:36:53 51°14.196 2°53.964 18.2 335 16.5 101340 68
2008-09-01 06:36:58 51°14.188 2°53.941 19.3 335 16.5 101370 69
2008-09-01 06:37:03 51°14.18 2°53.918 15.9 336 16.5 101370 69
2008-09-01 06:37:08 51°14.172 2°53.895 15.8 335 16.6 101380 69
2008-09-01 06:37:13 51°14.164 2°53.873 21.1 337 16.6 101380 69
2008-09-01 06:37:18 51°14.156 2°53.85 19 335 16.6 101380 71
2008-09-01 06:37:23 51°14.147 2°53.828 19.3 335 16.6 101380 71
2008-09-01 06:37:28 51°14.138 2°53.806 19 279 16.6 101350 71
2008-09-01 06:37:33 51°14.13 2°53.784 17.7 335 16.6 101350 71
2008-09-01 06:37:38 51°14.121 2°53.761 16.8 335 16.6 101350 71
2008-09-01 06:37:43 51°14.114 2°53.739 17.8 335 16.6 101350 71
2008-09-01 06:37:48 51°14.105 2°53.717 19.6 333 16.6 101350 70
2008-09-01 06:37:53 51°14.097 2°53.695 18.3 335 16.6 101350 70
2008-09-01 06:37:58 51°14.088 2°53.673 19 336 16.6 101350 70
2008-09-01 06:38:03 51°14.079 2°53.652 18.4 334 16.6 101350 70
2008-09-01 06:38:08 51°14.071 2°53.63 16.5 333 16.6 101350 71
2008-09-01 06:38:13 51°14.063 2°53.608 19.3 333 16.6 101350 71
2008-09-01 06:38:18 51°14.055 2°53.586 20.3 333 16.6 101360 72
2008-09-01 06:38:23 51°14.047 2°53.564 20.6 335 16.6 101360 72
2008-09-01 06:38:28 51°14.039 2°53.542 16 335 16.7 101370 72
2008-09-01 06:38:33 51°14.031 2°53.519 19.6 335 16.7 101370 72
2008-09-01 06:38:38 51°14.022 2°53.498 18.6 281 16.6 101360 72
2008-09-01 06:38:43 51°14.014 2°53.475 17.9 335 16.6 101360 72
2008-09-01 06:38:48 51°14.006 2°53.453 18.5 335 16.6 101360 71
2008-09-01 06:38:53 51°13.998 2°53.43 18.2 335 16.6 101360 71
2008-09-01 06:38:58 51°13.99 2°53.408 17.2 334 16.6 101360 72
2008-09-01 06:39:03 51°13.982 2°53.386 18.3 337 16.6 101360 72
2008-09-01 06:39:08 51°13.973 2°53.364 17.2 338 16.6 101370 72
2008-09-01 06:39:13 51°13.965 2°53.342 19.4 335 16.6 101370 72
2008-09-01 06:39:18 51°13.958 2°53.319 18.4 337 16.6 101370 73
2008-09-01 06:39:23 51°13.949 2°53.297 18.4 338 16.6 101370 73
2008-09-01 06:39:28 51°13.941 2°53.276 18.7 338 16.7 101360 73
2008-09-01 06:39:33 51°13.933 2°53.254 17.7 336 16.7 101360 73
2008-09-01 06:39:37 51°13.926 2°53.236 18 338 16.6 101350 72
2008-09-01 06:39:43 51°13.916 2°53.21 19.8 341 16.6 101350 72
2008-09-01 06:39:48 51°13.908 2°53.188 21.3 341 16.6 101350 70
2008-09-01 06:39:53 51°13.9 2°53.166 16.7 339 16.6 101350 70
2008-09-01 06:39:57 51°13.893 2°53.149 19.2 339 16.6 101350 70
2008-09-01 06:40:02 51°13.885 2°53.127 19.7 337 16.6 101350 70
2008-09-01 06:40:07 51°13.877 2°53.105 18.1 340 16.6 101360 70
2008-09-01 06:40:13 51°13.867 2°53.078 17.2 338 16.6 101360 70
2008-09-01 06:40:17 51°13.86 2°53.061 17.2 340 16.6 101340 71
2008-09-01 06:40:22 51°13.852 2°53.038 17.8 339 16.6 101340 71
2008-09-01 06:40:27 51°13.845 2°53.016 19 340 16.6 101350 71
2008-09-01 06:40:33 51°13.834 2°52.99 19.1 340 16.6 101350 71
2008-09-01 06:40:37 51°13.828 2°52.972 16.5 335 16.6 101350 71
2008-09-01 06:40:42 51°13.82 2°52.95 17.4 338 16.6 101350 71
2008-09-01 06:40:47 51°13.812 2°52.928 18 338 16.6 101360 72
2008-09-01 06:40:53 51°13.802 2°52.902 18.1 337 16.6 101360 72
2008-09-01 06:40:57 51°13.796 2°52.884 19.4 337 16.6 101340 71
2008-09-01 06:41:02 51°13.787 2°52.862 20.5 338 16.6 101340 71
2008-09-01 06:41:07 51°13.779 2°52.84 19 339 16.6 101370 71
2008-09-01 06:41:12 51°13.771 2°52.818 17.8 337 16.6 101370 71
2008-09-01 06:41:17 51°13.763 2°52.796 16.8 278 16.6 101370 73
2008-09-01 06:41:22 51°13.755 2°52.773 19.6 337 16.6 101370 73
2008-09-01 06:41:27 51°13.747 2°52.751 17.8 336 16.6 101350 72
2008-09-01 06:41:32 51°13.739 2°52.728 20 336 16.6 101350 72
2008-09-01 06:41:37 51°13.73 2°52.707 18.6 339 16.6 101360 72
2008-09-01 06:41:42 51°13.722 2°52.685 18.4 336 16.6 101360 72
2008-09-01 06:41:47 51°13.714 2°52.662 21 281 16.6 101360 72
2008-09-01 06:41:52 51°13.706 2°52.64 20.6 335 16.6 101360 72
2008-09-01 06:41:57 51°13.698 2°52.618 18.8 337 16.6 101360 71
2008-09-01 06:42:02 51°13.69 2°52.595 17.3 336 16.6 101360 71
2008-09-01 06:42:07 51°13.682 2°52.573 20.6 282 16.6 101360 71
2008-09-01 06:42:12 51°13.674 2°52.55 21.2 337 16.6 101360 71
2008-09-01 06:42:17 51°13.666 2°52.529 21.1 337 16.5 101350 70
2008-09-01 06:42:22 51°13.657 2°52.507 18.5 338 16.5 101350 70
2008-09-01 06:42:27 51°13.648 2°52.485 19.2 282 16.5 101360 70
2008-09-01 06:42:33 51°13.639 2°52.459 19.4 339 16.5 101360 70
2008-09-01 06:42:37 51°13.633 2°52.441 17.2 339 16.5 101350 69
2008-09-01 06:42:42 51°13.624 2°52.42 19 339 16.5 101350 69
2008-09-01 06:42:47 51°13.616 2°52.398 17.2 339 16.5 101330 68
2008-09-01 06:42:53 51°13.606 2°52.371 17.7 338 16.5 101330 68
2008-09-01 06:42:57 51°13.6 2°52.354 16.7 338 16.5 101350 69
2008-09-01 06:43:02 51°13.591 2°52.332 18.1 337 16.5 101350 69
2008-09-01 06:43:07 51°13.583 2°52.31 18.8 337 16.5 101360 70
2008-09-01 06:43:13 51°13.573 2°52.283 20 337 16.5 101360 70
2008-09-01 06:43:17 51°13.566 2°52.265 18.8 336 16.6 101350 70
2008-09-01 06:43:22 51°13.558 2°52.243 17.7 337 16.6 101350 70
2008-09-01 06:43:27 51°13.55 2°52.22 18 339 16.6 101360 70
2008-09-01 06:43:32 51°13.541 2°52.198 20.8 338 16.6 101360 70
2008-09-01 06:43:37 51°13.533 2°52.175 18.2 339 16.6 101370 70
2008-09-01 06:43:42 51°13.525 2°52.152 17.1 337 16.6 101370 70
2008-09-01 06:43:47 51°13.517 2°52.129 18.8 337 16.5 101350 70
2008-09-01 06:43:53 51°13.507 2°52.101 19.9 335 16.5 101350 70
2008-09-01 06:43:57 51°13.5 2°52.083 18.1 334 16.5 101370 70
2008-09-01 06:44:02 51°13.491 2°52.059 17.2 338 16.5 101370 70
2008-09-01 06:44:07 51°13.483 2°52.036 16.4 336 16.5 101360 70
2008-09-01 06:44:13 51°13.472 2°52.008 17.8 339 16.5 101360 70
2008-09-01 06:44:17 51°13.465 2°51.99 20 337 16.5 101360 71
2008-09-01 06:44:22 51°13.456 2°51.967 18.2 338 16.5 101360 71
2008-09-01 06:44:27 51°13.447 2°51.944 21.2 338 16.6 101360 72
2008-09-01 06:44:33 51°13.436 2°51.916 18.6 339 16.6 101360 72
2008-09-01 06:44:37 51°13.429 2°51.897 17.9 338 16.5 101350 72
2008-09-01 06:44:42 51°13.421 2°51.874 17.6 339 16.5 101350 72
2008-09-01 06:44:47 51°13.412 2°51.851 17.9 282 16.5 101360 72
2008-09-01 06:44:53 51°13.401 2°51.824 17.8 340 16.5 101360 72
2008-09-01 06:44:57 51°13.395 2°51.805 16.7 340 16.5 101350 71
2008-09-01 06:45:02 51°13.386 2°51.782 17 340 16.5 101350 71
2008-09-01 06:45:07 51°13.377 2°51.759 17.7 339 16.5 101360 71
2008-09-01 06:45:13 51°13.366 2°51.731 19.5 343 16.5 101360 71
2008-09-01 06:45:17 51°13.359 2°51.712 16 284 16.5 101370 72
2008-09-01 06:45:22 51°13.35 2°51.689 17.7 340 16.5 101370 72
2008-09-01 06:45:27 51°13.342 2°51.665 15.8 338 16.5 101360 71
2008-09-01 06:45:32 51°13.333 2°51.642 18.8 338 16.5 101360 71
2008-09-01 06:45:37 51°13.324 2°51.618 16.8 279 16.5 101370 72
2008-09-01 06:45:42 51°13.315 2°51.596 17.7 337 16.5 101370 72
2008-09-01 06:45:47 51°13.306 2°51.573 17.7 337 16.5 101360 72
2008-09-01 06:45:53 51°13.296 2°51.544 17.9 336 16.5 101360 72
2008-09-01 06:45:57 51°13.289 2°51.526 18.3 337 16.5 101380 72
2008-09-01 06:46:02 51°13.28 2°51.502 17.4 336 16.5 101380 72
2008-09-01 06:46:07 51°13.272 2°51.478 19.5 337 16.5 101360 73
2008-09-01 06:46:13 51°13.262 2°51.45 18.4 336 16.5 101360 73
2008-09-01 06:46:17 51°13.255 2°51.431 18.8 338 16.5 101380 72
2008-09-01 06:46:22 51°13.247 2°51.406 17.7 341 16.5 101380 72
2008-09-01 06:46:27 51°13.239 2°51.383 18.8 339 16.5 101360 71
2008-09-01 06:46:33 51°13.229 2°51.354 16.6 337 16.5 101360 71
2008-09-01 06:46:37 51°13.222 2°51.336 15.9 338 16.5 101360 71
2008-09-01 06:46:42 51°13.212 2°51.313 17.8 339 16.5 101360 71
2008-09-01 06:46:47 51°13.203 2°51.289 17.2 339 16.5 101370 71
2008-09-01 06:46:53 51°13.193 2°51.26 18.1 337 16.5 101370 71
2008-09-01 06:46:57 51°13.187 2°51.241 19 338 16.5 101360 73
2008-09-01 06:47:02 51°13.179 2°51.217 18.6 337 16.5 101360 73
2008-09-01 06:47:07 51°13.17 2°51.194 17.6 338 16.5 101370 74
2008-09-01 06:47:13 51°13.16 2°51.165 16.8 336 16.5 101370 74
2008-09-01 06:47:17 51°13.152 2°51.146 15.7 335 16.6 101370 74
2008-09-01 06:47:22 51°13.144 2°51.122 16.5 336 16.6 101370 74
2008-09-01 06:47:27 51°13.136 2°51.098 17.9 337 16.6 101360 74
2008-09-01 06:47:33 51°13.125 2°51.069 18.7 338 16.6 101360 74
2008-09-01 06:47:37 51°13.118 2°51.051 16 336 16.6 101370 74
2008-09-01 06:47:42 51°13.109 2°51.028 15.4 336 16.6 101370 74
2008-09-01 06:47:47 51°13.101 2°51.004 19.6 336 16.6 101380 75
2008-09-01 06:47:52 51°13.092 2°50.98 19 335 16.6 101380 75
2008-09-01 06:47:57 51°13.083 2°50.956 20.4 336 16.6 101380 75
2008-09-01 06:48:02 51°13.075 2°50.933 19.4 337 16.6 101380 75
2008-09-01 06:48:07 51°13.066 2°50.91 17.7 282 16.6 101360 76
2008-09-01 06:48:12 51°13.058 2°50.886 18.8 337 16.6 101360 76
2008-09-01 06:48:17 51°13.049 2°50.862 19.2 280 16.6 101360 74
2008-09-01 06:48:22 51°13.041 2°50.839 17.4 337 16.6 101360 74
2008-09-01 06:48:27 51°13.032 2°50.815 16.8 283 16.5 101350 72
2008-09-01 06:48:32 51°13.023 2°50.792 18.7 340 16.5 101350 72
2008-09-01 06:48:37 51°13.015 2°50.768 15.4 339 16.5 101380 73
2008-09-01 06:48:42 51°13.006 2°50.745 15.4 337 16.5 101380 73
2008-09-01 06:48:47 51°12.997 2°50.721 15.1 280 16.5 101370 72
2008-09-01 06:48:52 51°12.989 2°50.697 16.4 335 16.5 101370 72
2008-09-01 06:48:57 51°12.98 2°50.673 18.1 340 16.5 101370 73
2008-09-01 06:49:02 51°12.971 2°50.65 15.5 337 16.5 101370 73
2008-09-01 06:49:07 51°12.962 2°50.626 18.5 280 16.5 101370 74
2008-09-01 06:49:13 51°12.951 2°50.598 19 340 16.5 101370 74
2008-09-01 06:49:17 51°12.945 2°50.579 18.2 339 16.6 101380 75
2008-09-01 06:49:22 51°12.936 2°50.555 18.2 339 16.6 101380 75
2008-09-01 06:49:27 51°12.927 2°50.531 17.3 278 16.6 101370 76
2008-09-01 06:49:33 51°12.917 2°50.503 18.7 339 16.6 101370 76
2008-09-01 06:49:37 51°12.91 2°50.485 15.7 339 16.6 101370 75
2008-09-01 06:49:42 51°12.9 2°50.461 16.9 337 16.6 101370 75
2008-09-01 06:49:47 51°12.892 2°50.438 18.7 342 16.5 101360 74
2008-09-01 06:49:53 51°12.882 2°50.409 20.5 335 16.5 101360 74
2008-09-01 06:49:57 51°12.875 2°50.39 18.1 338 16.6 101380 75
2008-09-01 06:50:02 51°12.867 2°50.367 18.2 337 16.6 101380 75
2008-09-01 06:50:07 51°12.858 2°50.343 18.1 337 16.6 101380 76
2008-09-01 06:50:13 51°12.847 2°50.315 17.3 337 16.6 101380 76
2008-09-01 06:50:17 51°12.84 2°50.296 16.3 339 16.6 101380 76
2008-09-01 06:50:22 51°12.831 2°50.273 14.2 340 16.6 101380 76
2008-09-01 06:50:27 51°12.823 2°50.249 17.7 339 16.6 101370 75
2008-09-01 06:50:33 51°12.812 2°50.222 18.1 338 16.6 101370 75
2008-09-01 06:50:37 51°12.805 2°50.203 17.4 340 16.6 101370 75
2008-09-01 06:50:42 51°12.797 2°50.179 17 339 16.6 101370 75
2008-09-01 06:50:47 51°12.789 2°50.154 19.5 340 16.6 101380 76
2008-09-01 06:50:53 51°12.779 2°50.126 19.4 340 16.6 101380 76
2008-09-01 06:50:57 51°12.772 2°50.107 19.2 337 16.6 101370 76
2008-09-01 06:51:02 51°12.764 2°50.083 17.3 338 16.6 101370 76
2008-09-01 06:51:07 51°12.756 2°50.058 17.7 339 16.6 101360 75
2008-09-01 06:51:13 51°12.747 2°50.029 16.6 337 16.6 101360 75
2008-09-01 06:51:17 51°12.741 2°50.01 16 337 16.5 101370 74
2008-09-01 06:51:22 51°12.733 2°49.986 19.6 336 16.5 101370 74
2008-09-01 06:51:28 51°12.724 2°49.956 19.6 337 16.5 101380 74
2008-09-01 06:51:33 51°12.717 2°49.932 17.2 334 16.5 101380 74
2008-09-01 06:51:37 51°12.711 2°49.912 19.7 281 16.5 101360 75
2008-09-01 06:51:42 51°12.704 2°49.887 20.1 334 16.5 101360 75
2008-09-01 06:51:47 51°12.697 2°49.862 18.3 334 16.5 101370 75
2008-09-01 06:51:53 51°12.689 2°49.832 19.5 335 16.5 101370 75
2008-09-01 06:51:57 51°12.683 2°49.812 19 334 16.5 101370 74
2008-09-01 06:52:02 51°12.677 2°49.787 19.2 334 16.5 101370 74
2008-09-01 06:52:07 51°12.67 2°49.762 19.8 335 16.5 101350 73
2008-09-01 06:52:13 51°12.662 2°49.731 17.1 333 16.5 101350 73
2008-09-01 06:52:17 51°12.657 2°49.71 18.7 278 16.5 101360 72
2008-09-01 06:52:22 51°12.651 2°49.685 19 332 16.5 101360 72
2008-09-01 06:52:27 51°12.645 2°49.659 16 332 16.5 101370 73
2008-09-01 06:52:32 51°12.638 2°49.633 17.2 334 16.5 101370 73
2008-09-01 06:52:37 51°12.631 2°49.608 20 334 16.5 101380 73
2008-09-01 06:52:42 51°12.624 2°49.582 19.3 335 16.5 101380 73
2008-09-01 06:52:47 51°12.618 2°49.557 18.2 335 16.5 101370 74
2008-09-01 06:52:53 51°12.609 2°49.526 20.1 335 16.5 101370 74
2008-09-01 06:52:57 51°12.604 2°49.506 18.5 334 16.5 101360 75
2008-09-01 06:53:02 51°12.597 2°49.48 19.9 332 16.5 101360 75
2008-09-01 06:53:07 51°12.591 2°49.455 17.7 331 16.5 101360 74
2008-09-01 06:53:13 51°12.582 2°49.425 19.6 334 16.5 101360 74
2008-09-01 06:53:17 51°12.577 2°49.404 19.4 334 16.5 101370 73
2008-09-01 06:53:22 51°12.57 2°49.379 18.5 334 16.5 101370 73
2008-09-01 06:53:27 51°12.563 2°49.353 20.7 335 16.5 101380 74
2008-09-01 06:53:33 51°12.555 2°49.323 19 335 16.5 101380 74
2008-09-01 06:53:37 51°12.549 2°49.302 18.5 335 16.5 101360 73
2008-09-01 06:53:42 51°12.542 2°49.277 18.2 332 16.5 101360 73
2008-09-01 06:53:47 51°12.536 2°49.252 17.7 334 16.5 101350 73
2008-09-01 06:53:53 51°12.527 2°49.221 18.2 332 16.5 101350 73
2008-09-01 06:53:57 51°12.522 2°49.201 18.7 333 16.5 101360 74
2008-09-01 06:54:02 51°12.515 2°49.175 19.5 335 16.5 101360 74
2008-09-01 06:54:07 51°12.508 2°49.15 19.6 334 16.5 101370 74
2008-09-01 06:54:13 51°12.5 2°49.12 19.4 334 16.5 101370 74
2008-09-01 06:54:17 51°12.494 2°49.1 17 337 16.5 101380 74
2008-09-01 06:54:22 51°12.487 2°49.074 18.9 335 16.5 101380 74
2008-09-01 06:54:27 51°12.481 2°49.048 19.8 335 16.5 101370 73
2008-09-01 06:54:33 51°12.473 2°49.018 20.3 337 16.5 101370 73
2008-09-01 06:54:37 51°12.467 2°48.997 18.3 337 16.5 101360 73
2008-09-01 06:54:42 51°12.46 2°48.972 20.2 336 16.5 101360 73
2008-09-01 06:54:47 51°12.453 2°48.947 18.9 337 16.4 101370 72
2008-09-01 06:54:52 51°12.445 2°48.922 17.5 337 16.4 101370 72
2008-09-01 06:54:57 51°12.438 2°48.896 22.8 336 16.4 101360 72
2008-09-01 06:55:02 51°12.431 2°48.871 18.9 334 16.4 101360 72
2008-09-01 06:55:07 51°12.425 2°48.845 21.3 339 16.4 101360 71
2008-09-01 06:55:12 51°12.418 2°48.82 17.9 338 16.4 101360 71
2008-09-01 06:55:17 51°12.411 2°48.794 20.1 338 16.4 101360 72
2008-09-01 06:55:22 51°12.403 2°48.769 19.8 337 16.4 101360 72
2008-09-01 06:55:27 51°12.396 2°48.744 20.3 338 16.4 101360 71
2008-09-01 06:55:32 51°12.389 2°48.719 17.6 336 16.4 101360 71
2008-09-01 06:55:37 51°12.382 2°48.694 19.7 337 16.4 101360 72
2008-09-01 06:55:42 51°12.376 2°48.668 20.6 337 16.4 101360 72
2008-09-01 06:55:47 51°12.369 2°48.643 20.5 336 16.4 101370 72
2008-09-01 06:55:53 51°12.361 2°48.612 20 336 16.4 101370 72
2008-09-01 06:55:57 51°12.355 2°48.592 20 336 16.4 101360 71
2008-09-01 06:56:02 51°12.348 2°48.567 17.8 338 16.4 101360 71
2008-09-01 06:56:07 51°12.341 2°48.542 18 336 16.4 101370 71
2008-09-01 06:56:13 51°12.332 2°48.511 17.6 336 16.4 101370 71
2008-09-01 06:56:17 51°12.327 2°48.491 18.7 336 16.4 101360 71
2008-09-01 06:56:22 51°12.319 2°48.466 18.5 336 16.4 101360 71
2008-09-01 06:56:27 51°12.312 2°48.441 19.5 335 16.4 101360 72
2008-09-01 06:56:33 51°12.304 2°48.411 19.9 337 16.4 101360 72
2008-09-01 06:56:37 51°12.298 2°48.39 20.4 337 16.4 101370 72
2008-09-01 06:56:42 51°12.291 2°48.365 16.3 335 16.4 101370 72
2008-09-01 06:56:47 51°12.284 2°48.34 17.5 333 16.4 101370 72
2008-09-01 06:56:53 51°12.276 2°48.309 19.8 331 16.4 101370 72
2008-09-01 06:56:57 51°12.27 2°48.289 18.5 333 16.4 101380 74
2008-09-01 06:57:02 51°12.263 2°48.263 18.7 333 16.4 101380 74
2008-09-01 06:57:07 51°12.256 2°48.238 17.7 334 16.5 101360 75
2008-09-01 06:57:13 51°12.247 2°48.207 19.2 334 16.5 101360 75
2008-09-01 06:57:17 51°12.241 2°48.187 17 334 16.5 101370 76
2008-09-01 06:57:22 51°12.234 2°48.161 21 335 16.5 101370 76
2008-09-01 06:57:27 51°12.227 2°48.136 21.1 335 16.5 101380 76
2008-09-01 06:57:33 51°12.219 2°48.105 20.5 332 16.5 101380 76
2008-09-01 06:57:37 51°12.214 2°48.085 18.6 332 16.5 101380 76
2008-09-01 06:57:42 51°12.207 2°48.06 18.9 334 16.5 101380 76
2008-09-01 06:57:47 51°12.2 2°48.035 19.8 333 16.5 101380 74
2008-09-01 06:57:53 51°12.191 2°48.004 17.4 335 16.5 101380 74
2008-09-01 06:57:57 51°12.185 2°47.984 19.3 333 16.5 101370 74
2008-09-01 06:58:03 51°12.177 2°47.954 18.6 329 16.5 101370 74
2008-09-01 06:58:08 51°12.17 2°47.928 18.3 332 16.4 101360 74
2008-09-01 06:58:13 51°12.163 2°47.902 18.9 335 16.4 101360 74
2008-09-01 06:58:17 51°12.158 2°47.882 19.1 334 16.4 101370 73
2008-09-01 06:58:22 51°12.15 2°47.856 18.5 332 16.4 101370 73
2008-09-01 06:58:28 51°12.142 2°47.826 16.1 331 16.4 101380 74
2008-09-01 06:58:33 51°12.135 2°47.8 20.6 332 16.4 101380 74
2008-09-01 06:58:37 51°12.129 2°47.78 20.9 335 16.5 101370 75
2008-09-01 06:58:42 51°12.122 2°47.755 19.1 333 16.5 101370 75
2008-09-01 06:58:47 51°12.115 2°47.73 18.3 334 16.4 101380 73
2008-09-01 06:58:53 51°12.106 2°47.699 18.3 335 16.4 101380 73
2008-09-01 06:58:57 51°12.101 2°47.679 17.9 336 16.4 101390 73
2008-09-01 06:59:02 51°12.094 2°47.653 18.1 335 16.4 101390 73
2008-09-01 06:59:07 51°12.087 2°47.628 18.4 335 16.4 101360 71
2008-09-01 06:59:12 51°12.08 2°47.602 19.4 334 16.4 101360 71
2008-09-01 06:59:17 51°12.073 2°47.577 19.7 331 16.4 101380 72
2008-09-01 06:59:22 51°12.066 2°47.551 22 333 16.4 101380 72
2008-09-01 06:59:27 51°12.059 2°47.526 18.3 334 16.4 101370 73
2008-09-01 06:59:32 51°12.052 2°47.5 19 331 16.4 101370 73
2008-09-01 06:59:37 51°12.045 2°47.474 21.1 333 16.5 101390 74
2008-09-01 06:59:42 51°12.038 2°47.449 18.3 333 16.5 101390 74
2008-09-01 06:59:47 51°12.031 2°47.423 20.6 332 16.4 101360 72
2008-09-01 06:59:53 51°12.022 2°47.393 20.8 335 16.4 101360 72
2008-09-01 06:59:57 51°12.017 2°47.373 19.9 334 16.4 101350 72
2008-09-01 07:00:02 51°12.01 2°47.347 22 334 16.4 101350 72
2008-09-01 07:00:07 51°12.003 2°47.321 22.4 333 16.5 101360 72
2008-09-01 07:00:13 51°11.995 2°47.291 18.3 335 16.5 101360 72
2008-09-01 07:00:17 51°11.989 2°47.27 20.7 335 16.5 101360 73
2008-09-01 07:00:22 51°11.983 2°47.245 19 336 16.5 101360 73
2008-09-01 07:00:27 51°11.976 2°47.219 19.1 336 16.4 101380 72
2008-09-01 07:00:33 51°11.968 2°47.188 17.8 334 16.4 101380 72
2008-09-01 07:00:37 51°11.963 2°47.167 20.5 334 16.4 101380 72
2008-09-01 07:00:42 51°11.956 2°47.142 19 335 16.4 101380 72
2008-09-01 07:00:47 51°11.949 2°47.116 21.2 336 16.4 101380 71
2008-09-01 07:00:53 51°11.94 2°47.085 20.1 335 16.4 101380 71
2008-09-01 07:00:57 51°11.935 2°47.064 19.9 336 16.4 101380 71
2008-09-01 07:01:02 51°11.928 2°47.038 16.2 337 16.4 101380 71
2008-09-01 07:01:07 51°11.921 2°47.012 19.5 337 16.4 101380 72
2008-09-01 07:01:13 51°11.914 2°46.981 16.7 335 16.4 101380 72
2008-09-01 07:01:17 51°11.909 2°46.96 18.1 336 16.4 101380 71
2008-09-01 07:01:22 51°11.902 2°46.934 19.8 336 16.4 101380 71
2008-09-01 07:01:27 51°11.895 2°46.908 20.4 336 16.4 101390 71
2008-09-01 07:01:32 51°11.889 2°46.882 18 335 16.4 101390 71
2008-09-01 07:01:37 51°11.882 2°46.856 19.7 335 16.4 101380 72
2008-09-01 07:01:42 51°11.876 2°46.83 18.2 336 16.4 101380 72
2008-09-01 07:01:47 51°11.869 2°46.804 21 336 16.4 101380 73
2008-09-01 07:01:52 51°11.862 2°46.779 19 336 16.4 101380 73
2008-09-01 07:01:57 51°11.855 2°46.753 17.8 337 16.4 101370 73
2008-09-01 07:02:02 51°11.848 2°46.728 16.9 336 16.4 101370 73
2008-09-01 07:02:07 51°11.841 2°46.702 17.2 335 16.4 101380 73
2008-09-01 07:02:12 51°11.834 2°46.676 16.9 332 16.4 101380 73
2008-09-01 07:02:17 51°11.827 2°46.65 17.2 335 16.4 101370 73
2008-09-01 07:02:22 51°11.82 2°46.625 17.8 334 16.4 101370 73
2008-09-01 07:02:27 51°11.814 2°46.598 17.1 333 16.4 101380 74
2008-09-01 07:02:33 51°11.806 2°46.567 17.9 335 16.4 101380 74
2008-09-01 07:02:37 51°11.801 2°46.546 16.9 337 16.5 101380 75
2008-09-01 07:02:42 51°11.794 2°46.52 21 337 16.5 101380 75
2008-09-01 07:02:47 51°11.788 2°46.493 19.9 336 16.5 101380 76
2008-09-01 07:02:53 51°11.78 2°46.462 17.6 334 16.5 101380 76
2008-09-01 07:02:57 51°11.775 2°46.441 15.4 335 16.5 101380 76
2008-09-01 07:03:02 51°11.768 2°46.415 14.6 333 16.5 101380 76
2008-09-01 07:03:07 51°11.761 2°46.389 17.5 336 16.5 101390 76
2008-09-01 07:03:13 51°11.754 2°46.357 15.3 336 16.5 101390 76
2008-09-01 07:03:17 51°11.748 2°46.336 17.5 336 16.5 101380 76
2008-09-01 07:03:22 51°11.742 2°46.31 16.7 336 16.5 101380 76
2008-09-01 07:03:27 51°11.734 2°46.285 16.9 335 16.5 101390 77
2008-09-01 07:03:33 51°11.726 2°46.254 16.9 335 16.5 101390 77
2008-09-01 07:03:37 51°11.72 2°46.233 16.6 336 16.5 101390 78
2008-09-01 07:03:42 51°11.713 2°46.208 16.2 340 16.5 101390 78
2008-09-01 07:03:47 51°11.706 2°46.182 18.9 335 16.5 101390 77
2008-09-01 07:03:53 51°11.697 2°46.151 16.6 334 16.5 101390 77
2008-09-01 07:03:57 51°11.691 2°46.13 19.4 335 16.5 101390 78
2008-09-01 07:04:02 51°11.684 2°46.104 19.8 336 16.5 101390 78
2008-09-01 07:04:07 51°11.677 2°46.078 18.5 335 16.5 101410 78
2008-09-01 07:04:13 51°11.668 2°46.048 17.4 336 16.5 101410 78
2008-09-01 07:04:17 51°11.663 2°46.027 20.1 337 16.5 101380 76
2008-09-01 07:04:22 51°11.655 2°46.002 20.2 336 16.5 101380 76
2008-09-01 07:04:27 51°11.649 2°45.975 18.2 335 16.5 101380 76
2008-09-01 07:04:33 51°11.641 2°45.944 17.2 335 16.5 101380 76
2008-09-01 07:04:37 51°11.636 2°45.923 19 334 16.4 101390 74
2008-09-01 07:04:42 51°11.629 2°45.897 19.6 335 16.4 101390 74
2008-09-01 07:04:47 51°11.623 2°45.871 20.5 332 16.4 101400 74
2008-09-01 07:04:53 51°11.615 2°45.839 18.9 336 16.4 101400 74
2008-09-01 07:04:57 51°11.61 2°45.818 18.3 335 16.4 101390 75
2008-09-01 07:05:02 51°11.604 2°45.792 20.2 335 16.4 101390 75
2008-09-01 07:05:08 51°11.596 2°45.761 18.7 336 16.4 101390 74
2008-09-01 07:05:13 51°11.589 2°45.734 17.9 337 16.4 101390 74
2008-09-01 07:05:17 51°11.584 2°45.713 18.4 336 16.4 101400 74
2008-09-01 07:05:22 51°11.578 2°45.687 19.9 336 16.4 101400 74
2008-09-01 07:05:28 51°11.569 2°45.656 19.4 339 16.4 101390 74
2008-09-01 07:05:33 51°11.562 2°45.63 16.4 336 16.4 101390 74
2008-09-01 07:05:37 51°11.557 2°45.61 16.8 333 16.4 101400 74
2008-09-01 07:05:42 51°11.55 2°45.584 19 334 16.4 101400 74
2008-09-01 07:05:47 51°11.542 2°45.558 17.9 333 16.5 101410 75
2008-09-01 07:05:53 51°11.534 2°45.527 19.9 333 16.5 101410 75
2008-09-01 07:05:57 51°11.528 2°45.507 19.7 335 16.5 101400 76
2008-09-01 07:06:02 51°11.522 2°45.481 18.7 331 16.5 101400 76
2008-09-01 07:06:07 51°11.515 2°45.455 20.2 332 16.5 101400 77
2008-09-01 07:06:12 51°11.508 2°45.429 17.1 335 16.5 101400 77
2008-09-01 07:06:17 51°11.502 2°45.403 20.4 334 16.5 101390 76
2008-09-01 07:06:22 51°11.495 2°45.377 18.1 334 16.5 101390 76
2008-09-01 07:06:27 51°11.488 2°45.351 19.9 333 16.5 101390 76
2008-09-01 07:06:33 51°11.48 2°45.32 19 335 16.5 101390 76
2008-09-01 07:06:37 51°11.474 2°45.3 19.6 334 16.4 101390 75
2008-09-01 07:06:42 51°11.467 2°45.274 19.1 336 16.4 101390 75
2008-09-01 07:06:47 51°11.46 2°45.248 18.8 336 16.4 101400 75
2008-09-01 07:06:53 51°11.452 2°45.217 15.9 332 16.4 101400 75
2008-09-01 07:06:57 51°11.447 2°45.196 16.4 333 16.4 101380 74
2008-09-01 07:07:02 51°11.44 2°45.17 18.9 333 16.4 101380 74
2008-09-01 07:07:07 51°11.434 2°45.144 17.2 332 16.4 101400 74
2008-09-01 07:07:13 51°11.426 2°45.113 15.3 335 16.4 101400 74
2008-09-01 07:07:17 51°11.421 2°45.092 16 332 16.4 101400 74
2008-09-01 07:07:22 51°11.414 2°45.066 17.5 336 16.4 101400 74
2008-09-01 07:07:27 51°11.407 2°45.04 17.2 336 16.4 101390 75
2008-09-01 07:07:33 51°11.399 2°45.009 19.9 335 16.4 101390 75
2008-09-01 07:07:37 51°11.394 2°44.988 19.6 336 16.4 101400 76
2008-09-01 07:07:42 51°11.388 2°44.961 18.1 337 16.4 101400 76
2008-09-01 07:07:47 51°11.381 2°44.935 17.8 335 16.5 101400 77
2008-09-01 07:07:53 51°11.374 2°44.903 18.1 334 16.5 101400 77
2008-09-01 07:07:57 51°11.37 2°44.882 16.8 328 16.5 101390 77
2008-09-01 07:08:02 51°11.364 2°44.855 18.8 331 16.5 101390 77
2008-09-01 07:08:07 51°11.359 2°44.828 18.6 329 16.5 101400 77
2008-09-01 07:08:12 51°11.353 2°44.802 21.2 330 16.5 101400 77
2008-09-01 07:08:17 51°11.347 2°44.775 20.7 331 16.5 101410 76
2008-09-01 07:08:22 51°11.342 2°44.748 21.9 333 16.5 101410 76
2008-09-01 07:08:27 51°11.336 2°44.721 17.8 332 16.4 101400 76
2008-09-01 07:08:32 51°11.331 2°44.694 18.6 331 16.4 101400 76
2008-09-01 07:08:37 51°11.325 2°44.667 16.3 331 16.4 101390 75
2008-09-01 07:08:42 51°11.32 2°44.64 19.9 331 16.4 101390 75
2008-09-01 07:08:47 51°11.315 2°44.613 19.9 332 16.4 101360 74
2008-09-01 07:08:53 51°11.307 2°44.582 17.4 333 16.4 101360 74
2008-09-01 07:08:57 51°11.303 2°44.56 18 335 16.4 101410 74
2008-09-01 07:09:02 51°11.297 2°44.533 19.8 334 16.4 101410 74
2008-09-01 07:09:07 51°11.292 2°44.507 18.7 333 16.4 101390 74
2008-09-01 07:09:13 51°11.284 2°44.475 16.3 332 16.4 101390 74
2008-09-01 07:09:17 51°11.279 2°44.454 17.6 332 16.4 101400 74
2008-09-01 07:09:22 51°11.274 2°44.427 18.1 334 16.4 101400 74
2008-09-01 07:09:27 51°11.268 2°44.401 18.6 332 16.4 101400 73
2008-09-01 07:09:33 51°11.26 2°44.369 20 335 16.4 101400 73
2008-09-01 07:09:37 51°11.256 2°44.348 18.4 330 16.4 101380 72
2008-09-01 07:09:42 51°11.25 2°44.322 17.9 333 16.4 101380 72
2008-09-01 07:09:47 51°11.244 2°44.296 18 334 16.4 101400 73
2008-09-01 07:09:53 51°11.237 2°44.264 21.2 333 16.4 101400 73
2008-09-01 07:09:57 51°11.232 2°44.243 18.7 334 16.4 101400 73
2008-09-01 07:10:02 51°11.227 2°44.217 20.2 336 16.4 101400 73
2008-09-01 07:10:07 51°11.221 2°44.19 17 335 16.4 101400 73
2008-09-01 07:10:13 51°11.214 2°44.159 19.3 332 16.4 101400 73
2008-09-01 07:10:17 51°11.209 2°44.138 19.8 331 16.4 101400 73
2008-09-01 07:10:22 51°11.203 2°44.112 21 333 16.4 101400 73
2008-09-01 07:10:27 51°11.198 2°44.085 20.6 335 16.4 101400 73
2008-09-01 07:10:33 51°11.192 2°44.053 21.2 334 16.4 101400 73
2008-09-01 07:10:37 51°11.188 2°44.032 18.3 332 16.4 101390 73
2008-09-01 07:10:42 51°11.182 2°44.005 20.6 331 16.4 101390 73
2008-09-01 07:10:47 51°11.177 2°43.978 20.1 332 16.4 101400 73
2008-09-01 07:10:53 51°11.171 2°43.946 21.4 331 16.4 101400 73
2008-09-01 07:10:57 51°11.167 2°43.924 16.1 330 16.4 101380 73
2008-09-01 07:11:02 51°11.162 2°43.897 18.8 330 16.4 101380 73
2008-09-01 07:11:07 51°11.157 2°43.87 16 332 16.4 101390 73
2008-09-01 07:11:13 51°11.151 2°43.838 19 333 16.4 101390 73
2008-09-01 07:11:17 51°11.147 2°43.816 18.5 333 16.5 101400 74
2008-09-01 07:11:22 51°11.142 2°43.789 18.1 332 16.5 101400 74
2008-09-01 07:11:27 51°11.136 2°43.762 18.8 330 16.5 101400 74
2008-09-01 07:11:33 51°11.13 2°43.73 20 331 16.5 101400 74
2008-09-01 07:11:37 51°11.126 2°43.709 17.8 332 16.5 101400 74
2008-09-01 07:11:43 51°11.121 2°43.676 17.8 331 16.5 101400 74
2008-09-01 07:11:47 51°11.117 2°43.655 20.7 331 16.5 101400 74
2008-09-01 07:11:53 51°11.111 2°43.622 17.9 332 16.5 101400 74
2008-09-01 07:11:57 51°11.108 2°43.6 19.8 332 16.4 101370 74
2008-09-01 07:12:02 51°11.103 2°43.573 17.2 331 16.4 101370 74
2008-09-01 07:12:09 51°11.096 2°43.535 16.8 331 16.4 101390 73
2008-09-01 07:12:13 51°11.092 2°43.514 18 331 16.4 101390 73
2008-09-01 07:12:17 51°11.088 2°43.492 17 329 16.4 101380 73
2008-09-01 07:12:22 51°11.084 2°43.465 17.6 332 16.4 101380 73
2008-09-01 07:12:27 51°11.079 2°43.438 16.7 332 16.4 101390 73
2008-09-01 07:12:33 51°11.073 2°43.406 17.2 330 16.4 101390 73
2008-09-01 07:12:37 51°11.069 2°43.384 19 330 16.4 101390 72
2008-09-01 07:12:43 51°11.064 2°43.352 16.3 330 16.4 101390 72
2008-09-01 07:12:47 51°11.06 2°43.33 16.2 329 16.4 101390 73
2008-09-01 07:12:53 51°11.055 2°43.297 17.2 330 16.4 101390 73
2008-09-01 07:12:57 51°11.052 2°43.275 17.2 331 16.4 101390 74
2008-09-01 07:13:03 51°11.047 2°43.243 20.5 329 16.4 101390 74
2008-09-01 07:13:07 51°11.044 2°43.221 19 329 16.4 101400 74
2008-09-01 07:13:13 51°11.039 2°43.188 16.9 326 16.4 101400 74
2008-09-01 07:13:17 51°11.037 2°43.166 20.2 332 16.4 101410 74
2008-09-01 07:13:23 51°11.032 2°43.133 19.3 329 16.4 101410 74
2008-09-01 07:13:27 51°11.029 2°43.111 17.9 329 16.4 101410 73
2008-09-01 07:13:33 51°11.025 2°43.078 20 331 16.4 101410 73
2008-09-01 07:13:37 51°11.022 2°43.056 17.7 330 16.4 101400 74
2008-09-01 07:13:43 51°11.018 2°43.024 19.6 330 16.4 101400 74
2008-09-01 07:13:47 51°11.016 2°43.002 18.3 329 16.4 101390 75
2008-09-01 07:13:53 51°11.011 2°42.969 18.1 329 16.4 101390 75
2008-09-01 07:13:57 51°11.008 2°42.947 16.3 331 16.4 101360 74
2008-09-01 07:14:03 51°11.004 2°42.913 18.9 332 16.4 101360 74
2008-09-01 07:14:07 51°11.002 2°42.891 19.7 331 16.4 101390 74
2008-09-01 07:14:13 51°10.997 2°42.858 17.4 332 16.4 101390 74
2008-09-01 07:14:17 51°10.995 2°42.836 16.4 332 16.4 101360 74
2008-09-01 07:14:23 51°10.991 2°42.803 17.5 330 16.4 101360 74
2008-09-01 07:14:27 51°10.988 2°42.78 16.4 330 16.4 101410 74
2008-09-01 07:14:33 51°10.984 2°42.747 20 331 16.4 101410 74
2008-09-01 07:14:37 51°10.982 2°42.725 17.2 328 16.4 101400 74
2008-09-01 07:14:43 51°10.977 2°42.692 17.3 329 16.4 101400 74
2008-09-01 07:14:47 51°10.974 2°42.67 17.7 330 16.4 101410 75
2008-09-01 07:14:53 51°10.97 2°42.638 19.4 329 16.4 101410 75
2008-09-01 07:14:57 51°10.967 2°42.616 18.9 330 16.4 101400 75
2008-09-01 07:15:02 51°10.962 2°42.589 17.5 330 16.4 101400 75
2008-09-01 07:15:07 51°10.958 2°42.561 16.6 331 16.4 101410 74
2008-09-01 07:15:13 51°10.953 2°42.529 17.4 331 16.4 101410 74
2008-09-01 07:15:17 51°10.949 2°42.507 19.7 331 16.4 101380 74
2008-09-01 07:15:23 51°10.945 2°42.475 19.2 331 16.4 101380 74
2008-09-01 07:15:27 51°10.941 2°42.453 18.2 331 16.4 101390 74
2008-09-01 07:15:33 51°10.936 2°42.42 17.9 332 16.4 101390 74
2008-09-01 07:15:37 51°10.933 2°42.399 18.7 332 16.4 101390 75
2008-09-01 07:15:43 51°10.928 2°42.366 15.8 332 16.4 101390 75
2008-09-01 07:15:47 51°10.925 2°42.344 19.4 335 16.4 101410 74
2008-09-01 07:15:53 51°10.92 2°42.311 21 334 16.4 101410 74
2008-09-01 07:15:57 51°10.917 2°42.289 19.2 333 16.4 101410 73
2008-09-01 07:16:03 51°10.912 2°42.256 19.5 333 16.4 101410 73
2008-09-01 07:16:07 51°10.908 2°42.235 18.8 333 16.4 101400 74
2008-09-01 07:16:13 51°10.903 2°42.202 18 331 16.4 101400 74
2008-09-01 07:16:17 51°10.9 2°42.18 17.9 332 16.4 101420 73
2008-09-01 07:16:23 51°10.896 2°42.148 16.7 330 16.4 101420 73
2008-09-01 07:16:27 51°10.893 2°42.126 18.5 333 16.3 101400 72
2008-09-01 07:16:33 51°10.888 2°42.093 19.5 331 16.3 101400 72
2008-09-01 07:16:37 51°10.885 2°42.071 19.7 331 16.4 101390 73
2008-09-01 07:16:43 51°10.88 2°42.038 18 330 16.4 101390 73
2008-09-01 07:16:49 51°10.875 2°42.006 18.4 333 16.4 101410 73
2008-09-01 07:16:53 51°10.872 2°41.984 18.6 332 16.4 101410 73
2008-09-01 07:16:57 51°10.869 2°41.963 16.4 330 16.4 101390 74
2008-09-01 07:17:03 51°10.865 2°41.93 19.1 333 16.4 101390 74
2008-09-01 07:17:07 51°10.862 2°41.908 18.8 333 16.4 101410 74
2008-09-01 07:17:13 51°10.858 2°41.875 17.8 332 16.4 101410 74
2008-09-01 07:17:17 51°10.855 2°41.853 18 332 16.4 101400 74
2008-09-01 07:17:22 51°10.852 2°41.826 20.1 331 16.4 101400 74
2008-09-01 07:17:27 51°10.849 2°41.798 19.7 332 16.4 101400 76
2008-09-01 07:17:33 51°10.845 2°41.765 18 332 16.4 101400 76
2008-09-01 07:17:37 51°10.842 2°41.743 19.5 331 16.4 101400 75
2008-09-01 07:17:43 51°10.838 2°41.71 17.6 332 16.4 101400 75
2008-09-01 07:17:47 51°10.835 2°41.688 15.3 333 16.4 101410 73
2008-09-01 07:17:53 51°10.831 2°41.655 17.6 331 16.4 101410 73
2008-09-01 07:17:57 51°10.827 2°41.633 19.1 332 16.4 101390 74
2008-09-01 07:18:03 51°10.823 2°41.6 19.6 333 16.4 101390 74
2008-09-01 07:18:07 51°10.82 2°41.579 19.8 332 16.4 101410 74
2008-09-01 07:18:13 51°10.816 2°41.546 15.7 332 16.4 101410 74
2008-09-01 07:18:17 51°10.812 2°41.524 18 333 16.4 101440 74
2008-09-01 07:18:23 51°10.808 2°41.491 18.2 332 16.4 101440 74
2008-09-01 07:18:27 51°10.804 2°41.469 19.5 332 16.4 101410 75
2008-09-01 07:18:33 51°10.799 2°41.436 17.4 331 16.4 101410 75
2008-09-01 07:18:37 51°10.796 2°41.415 17.8 330 16.4 101420 76
2008-09-01 07:18:43 51°10.792 2°41.382 19 329 16.4 101420 76
2008-09-01 07:18:49 51°10.787 2°41.348 18 331 16.4 101410 76
2008-09-01 07:18:53 51°10.784 2°41.326 16.5 330 16.4 101410 76
2008-09-01 07:18:57 51°10.781 2°41.304 17.8 330 16.4 101400 76
2008-09-01 07:19:03 51°10.777 2°41.271 16.1 330 16.4 101400 76
2008-09-01 07:19:07 51°10.774 2°41.249 19.7 328 16.4 101390 76
2008-09-01 07:19:13 51°10.77 2°41.216 16.9 330 16.4 101390 76
2008-09-01 07:19:17 51°10.767 2°41.194 16.8 330 16.4 101400 76
2008-09-01 07:19:23 51°10.764 2°41.161 14.3 329 16.4 101400 76
2008-09-01 07:19:27 51°10.761 2°41.139 15.9 330 16.4 101400 76
2008-09-01 07:19:33 51°10.757 2°41.106 16.3 330 16.4 101400 76
2008-09-01 07:19:37 51°10.754 2°41.084 17.3 331 16.4 101390 76
2008-09-01 07:19:43 51°10.751 2°41.051 18.6 329 16.4 101390 76
2008-09-01 07:19:47 51°10.748 2°41.029 19.2 330 16.5 101400 77
2008-09-01 07:19:53 51°10.744 2°40.996 18.2 330 16.5 101400 77
2008-09-01 07:19:57 51°10.742 2°40.976 18.1 331 16.4 101390 77
2008-09-01 07:20:03 51°10.739 2°40.946 14.7 329 16.4 101390 77
2008-09-01 07:20:07 51°10.736 2°40.927 16.1 330 16.4 101400 77
2008-09-01 07:20:13 51°10.733 2°40.9 17 331 16.4 101400 77
2008-09-01 07:20:17 51°10.731 2°40.883 16.4 331 16.4 101400 76
2008-09-01 07:20:23 51°10.727 2°40.858 16.1 330 16.4 101400 76
2008-09-01 07:20:27 51°10.725 2°40.842 15.7 331 16.4 101390 76
2008-09-01 07:20:33 51°10.721 2°40.818 16.4 333 16.4 101390 76
2008-09-01 07:20:37 51°10.719 2°40.802 16 331 16.4 101410 76
2008-09-01 07:20:43 51°10.715 2°40.779 14.1 333 16.4 101410 76
2008-09-01 07:20:47 51°10.713 2°40.764 13.9 331 16.4 101400 75
2008-09-01 07:20:53 51°10.709 2°40.744 14.7 331 16.4 101400 75
2008-09-01 07:20:57 51°10.706 2°40.73 15.9 333 16.4 101410 75
2008-09-01 07:21:03 51°10.702 2°40.711 16.2 333 16.4 101410 75
2008-09-01 07:21:07 51°10.7 2°40.699 15.9 332 16.4 101430 76
2008-09-01 07:21:13 51°10.697 2°40.682 16.6 326 16.4 101430 76
2008-09-01 07:21:17 51°10.696 2°40.671 14.7 329 16.4 101420 76
2008-09-01 07:21:23 51°10.695 2°40.656 15.8 327 16.4 101420 76
2008-09-01 07:21:28 51°10.694 2°40.644 17.2 324 16.4 101430 76
2008-09-01 07:21:34 51°10.694 2°40.631 16.2 320 16.4 101430 76
2008-09-01 07:21:38 51°10.695 2°40.623 13.7 318 16.4 101420 76
2008-09-01 07:21:43 51°10.696 2°40.613 13.4 36 16.4 101420 76
2008-09-01 07:21:48 51°10.698 2°40.605 13 25 16.4 101410 76
2008-09-01 07:21:53 51°10.7 2°40.597 14.5 235 16.4 101410 76
2008-09-01 07:21:57 51°10.701 2°40.592 13.1 21 16.4 101390 75
2008-09-01 07:22:03 51°10.704 2°40.586 13.1 235 16.4 101390 75
2008-09-01 07:22:07 51°10.705 2°40.582 14.7 24 16.3 101400 75
2008-09-01 07:22:13 51°10.707 2°40.577 12 244 16.3 101400 75
2008-09-01 07:22:17 51°10.708 2°40.574 12.7 24 16.3 101430 75
2008-09-01 07:22:23 51°10.71 2°40.571 12.6 246 16.3 101430 75
2008-09-01 07:22:28 51°10.711 2°40.569 13.5 23 16.3 101440 75
2008-09-01 07:22:33 51°10.711 2°40.567 13.1 251 16.3 101440 75
2008-09-01 07:22:37 51°10.711 2°40.566 15.1 249 16.3 101460 75
2008-09-01 07:22:43 51°10.711 2°40.565 10.6 256 16.3 101460 75
2008-09-01 07:22:47 51°10.711 2°40.565 12.3 252 16.4 101450 76
2008-09-01 07:22:53 51°10.711 2°40.564 9.6 254 16.4 101450 76
2008-09-01 07:22:57 51°10.711 2°40.564 13.1 251 16.4 101470 77
2008-09-01 07:23:03 51°10.711 2°40.563 15.2 259 16.4 101470 77
2008-09-01 07:23:09 51°10.711 2°40.563 14.4 255 16.4 101460 77
2008-09-01 07:23:13 51°10.711 2°40.563 13.4 260 16.4 101460 77
2008-09-01 07:23:17 51°10.711 2°40.562 14.4 261 16.5 101460 79
2008-09-01 07:23:23 51°10.71 2°40.562 7.5 263 16.5 101460 79
2008-09-01 07:23:28 51°10.71 2°40.562 13.9 262 16.5 101470 79
2008-09-01 07:23:33 51°10.71 2°40.562 9.1 262 16.5 101470 79
2008-09-01 07:23:37 51°10.71 2°40.562 9 264 16.5 101480 79
2008-09-01 07:23:42 51°10.71 2°40.562 9.7 262 16.5 101480 79
2008-09-01 07:23:47 51°10.71 2°40.562 9.2 265 16.4 101470 77
2008-09-01 07:23:53 51°10.71 2°40.562 10.4 267 16.4 101470 77
2008-09-01 07:23:57 51°10.71 2°40.562 8.8 263 16.4 101470 78
2008-09-01 07:24:02 51°10.71 2°40.562 8 268 16.4 101470 78
2008-09-01 07:24:07 51°10.709 2°40.562 9.6 265 16.4 101470 77
2008-09-01 07:24:13 51°10.709 2°40.562 9.3 267 16.4 101470 77
2008-09-01 07:24:17 51°10.709 2°40.562 9.6 266 16.4 101480 77
2008-09-01 07:24:22 51°10.709 2°40.562 8.3 265 16.4 101480 77
2008-09-01 07:24:27 51°10.709 2°40.562 9.4 265 16.4 101450 77
2008-09-01 07:24:33 51°10.709 2°40.562 9.1 264 16.4 101450 77
2008-09-01 07:24:37 51°10.708 2°40.562 10.1 264 16.4 101470 77
2008-09-01 07:24:42 51°10.708 2°40.562 10.7 264 16.4 101470 77
2008-09-01 07:24:47 51°10.708 2°40.562 13.3 269 16.4 101470 77
2008-09-01 07:24:53 51°10.707 2°40.562 11.1 269 16.4 101470 77
2008-09-01 07:24:57 51°10.707 2°40.562 8.9 267 16.3 101460 76
2008-09-01 07:25:02 51°10.707 2°40.562 11.2 266 16.3 101460 76
2008-09-01 07:25:07 51°10.707 2°40.562 10.2 268 16.3 101460 76
2008-09-01 07:25:13 51°10.707 2°40.562 9.2 268 16.3 101460 76
2008-09-01 07:25:17 51°10.707 2°40.562 8.7 266 16.3 101480 75
2008-09-01 07:25:22 51°10.707 2°40.561 9.8 269 16.3 101480 75
2008-09-01 07:25:27 51°10.706 2°40.561 8.6 265 16.3 101460 74
2008-09-01 07:25:33 51°10.706 2°40.561 9.5 267 16.3 101460 74
2008-09-01 07:25:37 51°10.706 2°40.561 11.5 269 16.3 101460 76
2008-09-01 07:25:42 51°10.706 2°40.561 7.7 268 16.3 101460 76
2008-09-01 07:25:48 51°10.706 2°40.561 11 269 16.4 101460 77
2008-09-01 07:25:53 51°10.706 2°40.561 9.1 266 16.4 101460 77
2008-09-01 07:25:57 51°10.706 2°40.561 9.7 265 16.4 101470 77
2008-09-01 07:26:02 51°10.705 2°40.561 7.7 264 16.4 101470 77
2008-09-01 07:26:07 51°10.705 2°40.56 8.8 264 16.3 101480 77
2008-09-01 07:26:13 51°10.705 2°40.56 7.5 264 16.3 101480 77
2008-09-01 07:26:17 51°10.705 2°40.56 9.5 263 16.3 101480 75
2008-09-01 07:26:22 51°10.705 2°40.56 8.4 265 16.3 101480 75
2008-09-01 07:26:27 51°10.705 2°40.559 7.9 263 16.3 101470 75
2008-09-01 07:26:32 51°10.704 2°40.559 11.3 265 16.3 101470 75
2008-09-01 07:26:37 51°10.704 2°40.559 7.6 262 16.3 101470 75
2008-09-01 07:26:42 51°10.704 2°40.559 9.8 264 16.3 101470 75
2008-09-01 07:26:47 51°10.704 2°40.558 10.8 262 16.3 101470 76
2008-09-01 07:26:52 51°10.704 2°40.558 9 265 16.3 101470 76
2008-09-01 07:26:57 51°10.703 2°40.558 11.7 261 16.3 101470 77
2008-09-01 07:27:02 51°10.703 2°40.558 13.7 261 16.3 101470 77
2008-09-01 07:27:07 51°10.703 2°40.557 11.1 261 16.3 101470 76
2008-09-01 07:27:12 51°10.703 2°40.557 13.5 260 16.3 101470 76
2008-09-01 07:27:17 51°10.703 2°40.558 10.8 262 16.3 101460 76
2008-09-01 07:27:22 51°10.702 2°40.557 8.7 262 16.3 101460 76
2008-09-01 07:27:27 51°10.702 2°40.557 8.2 265 16.3 101480 76
2008-09-01 07:27:33 51°10.702 2°40.557 8.8 262 16.3 101480 76
2008-09-01 07:27:37 51°10.702 2°40.557 9.2 264 16.4 101460 76
2008-09-01 07:27:42 51°10.702 2°40.557 8.5 265 16.4 101460 76
2008-09-01 07:27:47 51°10.701 2°40.557 9.5 263 16.4 101470 76
2008-09-01 07:27:53 51°10.701 2°40.557 10.1 262 16.4 101470 76
2008-09-01 07:27:57 51°10.701 2°40.557 12.4 260 16.4 101470 77
2008-09-01 07:28:02 51°10.701 2°40.556 9.3 260 16.4 101470 77
2008-09-01 07:28:07 51°10.7 2°40.556 12.3 257 16.4 101470 76
2008-09-01 07:28:13 51°10.7 2°40.556 11.5 261 16.4 101470 76
2008-09-01 07:28:17 51°10.7 2°40.556 14.8 259 16.4 101470 76
2008-09-01 07:28:22 51°10.7 2°40.555 12.1 262 16.4 101470 76
2008-09-01 07:28:27 51°10.699 2°40.556 11.5 256 16.4 101480 77
2008-09-01 07:28:33 51°10.699 2°40.555 11.9 259 16.4 101480 77
2008-09-01 07:28:37 51°10.699 2°40.556 8.6 263 16.4 101470 76
2008-09-01 07:28:42 51°10.699 2°40.555 12.8 261 16.4 101470 76
2008-09-01 07:28:47 51°10.698 2°40.555 9.6 260 16.4 101470 75
2008-09-01 07:28:53 51°10.698 2°40.555 7.8 261 16.4 101470 75
2008-09-01 07:28:57 51°10.698 2°40.555 9.2 263 16.3 101460 74
2008-09-01 07:29:02 51°10.697 2°40.555 8.5 262 16.3 101460 74
2008-09-01 07:29:07 51°10.697 2°40.555 9.9 263 16.3 101470 74
2008-09-01 07:29:13 51°10.696 2°40.554 11.1 261 16.3 101470 74
2008-09-01 07:29:17 51°10.696 2°40.554 8.3 261 16.4 101470 75
2008-09-01 07:29:22 51°10.696 2°40.554 11.1 261 16.4 101470 75
2008-09-01 07:29:27 51°10.695 2°40.554 8.9 263 16.4 101480 75
2008-09-01 07:29:33 51°10.695 2°40.555 6.4 263 16.4 101480 75
2008-09-01 07:29:37 51°10.694 2°40.555 9.4 263 16.4 101470 74
2008-09-01 07:29:42 51°10.694 2°40.554 8.3 265 16.4 101470 74
2008-09-01 07:29:48 51°10.694 2°40.554 10.3 264 16.4 101470 74
2008-09-01 07:29:53 51°10.693 2°40.554 9.4 261 16.4 101470 74
2008-09-01 07:29:57 51°10.693 2°40.554 8.9 261 16.4 101480 75
2008-09-01 07:30:03 51°10.693 2°40.554 10.2 262 16.4 101480 75
2008-09-01 07:30:08 51°10.693 2°40.554 12.2 260 16.4 101450 75
2008-09-01 07:30:13 51°10.692 2°40.554 10.4 262 16.4 101450 75
2008-09-01 07:30:17 51°10.692 2°40.554 12.3 262 16.4 101450 76
2008-09-01 07:30:22 51°10.692 2°40.554 8.2 263 16.4 101450 76
2008-09-01 07:30:27 51°10.691 2°40.554 11.2 261 16.4 101450 75
2008-09-01 07:30:33 51°10.691 2°40.554 12.3 263 16.4 101450 75
2008-09-01 07:30:37 51°10.69 2°40.554 11.5 263 16.4 101450 75
2008-09-01 07:30:42 51°10.69 2°40.554 8.5 265 16.4 101450 75
2008-09-01 07:30:47 51°10.689 2°40.554 8.3 259 16.4 101450 73
2008-09-01 07:30:53 51°10.689 2°40.554 10.2 263 16.4 101450 73
2008-09-01 07:30:57 51°10.689 2°40.554 11.1 263 16.3 101450 73
2008-09-01 07:31:02 51°10.688 2°40.553 9.8 263 16.3 101450 73
2008-09-01 07:31:07 51°10.688 2°40.553 6.9 265 16.4 101450 74
2008-09-01 07:31:13 51°10.687 2°40.553 9.7 264 16.4 101450 74
2008-09-01 07:31:17 51°10.687 2°40.553 9.5 264 16.3 101460 74
2008-09-01 07:31:22 51°10.686 2°40.553 7.7 266 16.3 101460 74
2008-09-01 07:31:27 51°10.686 2°40.553 8.1 265 16.4 101450 75
2008-09-01 07:31:33 51°10.685 2°40.552 8.1 267 16.4 101450 75
2008-09-01 07:31:37 51°10.685 2°40.553 8.3 268 16.4 101460 76
2008-09-01 07:31:42 51°10.685 2°40.553 11.4 261 16.4 101460 76
2008-09-01 07:31:47 51°10.687 2°40.553 9 265 16.5 101450 77
2008-09-01 07:31:53 51°10.69 2°40.553 8.3 264 16.5 101450 77
2008-09-01 07:31:57 51°10.693 2°40.554 9.1 264 16.5 101460 78
2008-09-01 07:32:02 51°10.697 2°40.555 8.1 264 16.5 101460 78
2008-09-01 07:32:07 51°10.702 2°40.557 7.2 266 16.5 101460 78
2008-09-01 07:32:13 51°10.709 2°40.562 8.4 37 16.5 101460 78
2008-09-01 07:32:17 51°10.713 2°40.566 9.6 30 16.5 101460 77
2008-09-01 07:32:22 51°10.719 2°40.573 9.4 35 16.5 101460 77
2008-09-01 07:32:27 51°10.725 2°40.581 11.6 22 16.5 101450 76
2008-09-01 07:32:33 51°10.733 2°40.593 9 270 16.5 101450 76
2008-09-01 07:32:37 51°10.74 2°40.602 8.4 26 16.4 101450 75
2008-09-01 07:32:42 51°10.748 2°40.614 7.1 265 16.4 101450 75
2008-09-01 07:32:48 51°10.759 2°40.629 7.5 262 16.4 101470 75
2008-09-01 07:32:53 51°10.769 2°40.642 7.4 269 16.4 101470 75
2008-09-01 07:32:57 51°10.777 2°40.653 7 269 16.4 101460 75
2008-09-01 07:33:02 51°10.788 2°40.667 8.1 267 16.4 101460 75
2008-09-01 07:33:07 51°10.8 2°40.681 9.5 265 16.4 101460 75
2008-09-01 07:33:13 51°10.812 2°40.7 6.4 267 16.4 101460 75
2008-09-01 07:33:17 51°10.821 2°40.711 5.5 269 16.4 101470 76
2008-09-01 07:33:22 51°10.832 2°40.727 8.7 267 16.4 101470 76
2008-09-01 07:33:27 51°10.843 2°40.743 10.1 267 16.4 101460 76
2008-09-01 07:33:32 51°10.855 2°40.757 7.2 270 16.4 101460 76
2008-09-01 07:33:37 51°10.866 2°40.774 6.1 267 16.4 101460 76
2008-09-01 07:33:42 51°10.877 2°40.789 7.6 267 16.4 101460 76
2008-09-01 07:33:47 51°10.888 2°40.805 6.3 266 16.4 101470 76
2008-09-01 07:33:52 51°10.899 2°40.821 6.3 269 16.4 101470 76
2008-09-01 07:33:57 51°10.911 2°40.838 6.8 268 16.4 101470 76
2008-09-01 07:34:02 51°10.921 2°40.855 6.6 267 16.4 101470 76
2008-09-01 07:34:07 51°10.931 2°40.872 5.2 266 16.4 101460 75
2008-09-01 07:34:13 51°10.944 2°40.893 6.9 268 16.4 101460 75
2008-09-01 07:34:18 51°10.954 2°40.911 8 268 16.3 101470 75
2008-09-01 07:34:23 51°10.964 2°40.929 7.6 36 16.3 101470 75
2008-09-01 07:34:28 51°10.974 2°40.947 8.2 28 16.4 101470 75
2008-09-01 07:34:34 51°10.985 2°40.969 6.8 262 16.4 101470 75
2008-09-01 07:34:38 51°10.994 2°40.982 8.7 28 16.4 101470 76
2008-09-01 07:34:43 51°11.002 2°41.003 9.6 33 16.4 101470 76
2008-09-01 07:34:48 51°11.013 2°41.019 9 26 16.4 101470 76
2008-09-01 07:34:54 51°11.024 2°41.043 8.3 39 16.4 101470 76
2008-09-01 07:34:58 51°11.032 2°41.057 7.6 28 16.4 101470 76
2008-09-01 07:35:03 51°11.041 2°41.077 4.2 269 16.4 101470 76
2008-09-01 07:35:08 51°11.051 2°41.095 5.5 270 16.3 101480 75
2008-09-01 07:35:14 51°11.061 2°41.118 8 270 16.3 101480 75
2008-09-01 07:35:18 51°11.069 2°41.133 9.1 25 16.3 101470 75
2008-09-01 07:35:23 51°11.079 2°41.152 8 265 16.3 101470 75
2008-09-01 07:35:28 51°11.088 2°41.172 8.4 29 16.4 101470 76
2008-09-01 07:35:34 51°11.099 2°41.194 5 268 16.4 101470 76
2008-09-01 07:35:38 51°11.106 2°41.21 5.7 25 16.4 101470 77
2008-09-01 07:35:43 51°11.116 2°41.228 7.9 40 16.4 101470 77
2008-09-01 07:35:48 51°11.124 2°41.248 7.3 23 16.4 101470 76
2008-09-01 07:35:53 51°11.135 2°41.266 8.5 36 16.4 101470 76
2008-09-01 07:35:58 51°11.144 2°41.285 7.7 25 16.4 101470 76
2008-09-01 07:36:03 51°11.153 2°41.305 8.9 37 16.4 101470 76
2008-09-01 07:36:08 51°11.163 2°41.322 8 23 16.3 101460 75
2008-09-01 07:36:14 51°11.174 2°41.346 7.1 34 16.3 101460 75
2008-09-01 07:36:18 51°11.182 2°41.359 7.4 25 16.3 101460 75
2008-09-01 07:36:23 51°11.189 2°41.381 8.1 42 16.3 101460 75
2008-09-01 07:36:28 51°11.201 2°41.398 7.5 27 16.3 101470 75
2008-09-01 07:36:34 51°11.211 2°41.422 7.8 33 16.3 101470 75
2008-09-01 07:36:38 51°11.219 2°41.435 9.9 25 16.4 101470 75
2008-09-01 07:36:43 51°11.228 2°41.455 7.8 269 16.4 101470 75
2008-09-01 07:36:49 51°11.24 2°41.476 7.1 29 16.4 101480 76
2008-09-01 07:36:54 51°11.249 2°41.496 6.6 265 16.4 101480 76
2008-09-01 07:36:58 51°11.257 2°41.51 6.3 264 16.4 101470 77
2008-09-01 07:37:03 51°11.265 2°41.53 7.4 268 16.4 101470 77
2008-09-01 07:37:09 51°11.277 2°41.551 6 22 16.4 101470 76
2008-09-01 07:37:14 51°11.286 2°41.571 8.5 42 16.4 101470 76
2008-09-01 07:37:18 51°11.294 2°41.585 8.1 267 16.4 101470 77
2008-09-01 07:37:23 51°11.303 2°41.605 9.5 41 16.4 101470 77
2008-09-01 07:37:28 51°11.312 2°41.624 9.4 29 16.4 101480 76
2008-09-01 07:37:34 51°11.323 2°41.647 6.8 269 16.4 101480 76
2008-09-01 07:37:38 51°11.331 2°41.662 8.4 28 16.4 101470 76
2008-09-01 07:37:43 51°11.34 2°41.682 8.8 38 16.4 101470 76
2008-09-01 07:37:48 51°11.35 2°41.701 7.2 17 16.4 101470 75
2008-09-01 07:37:54 51°11.361 2°41.724 10.3 38 16.4 101470 75
2008-09-01 07:37:58 51°11.369 2°41.739 8 28 16.4 101470 74
2008-09-01 07:38:03 51°11.378 2°41.759 8.6 42 16.4 101470 74
2008-09-01 07:38:08 51°11.387 2°41.778 8 29 16.4 101470 73
2008-09-01 07:38:14 51°11.398 2°41.802 7 36 16.4 101470 73
2008-09-01 07:38:19 51°11.408 2°41.821 7.4 24 16.4 101470 73
2008-09-01 07:38:23 51°11.415 2°41.838 10.1 36 16.4 101470 73
2008-09-01 07:38:29 51°11.427 2°41.861 7.7 25 16.4 101470 73
2008-09-01 07:38:34 51°11.436 2°41.88 7.8 33 16.4 101470 73
2008-09-01 07:38:38 51°11.443 2°41.896 8.1 27 16.4 101480 73
2008-09-01 07:38:44 51°11.455 2°41.919 9.6 34 16.4 101480 73
2008-09-01 07:38:49 51°11.464 2°41.938 7.2 24 16.4 101480 74
2008-09-01 07:38:54 51°11.473 2°41.958 9.8 38 16.4 101480 74
2008-09-01 07:38:58 51°11.481 2°41.974 8.5 28 16.4 101480 73
2008-09-01 07:39:03 51°11.49 2°41.993 8.6 39 16.4 101480 73
2008-09-01 07:39:09 51°11.502 2°42.017 8.4 28 16.3 101470 72
2008-09-01 07:39:14 51°11.51 2°42.037 8.2 35 16.3 101470 72
2008-09-01 07:39:18 51°11.518 2°42.052 7.6 24 16.3 101480 72
2008-09-01 07:39:23 51°11.528 2°42.071 8.7 35 16.3 101480 72
2008-09-01 07:39:29 51°11.539 2°42.095 7.2 26 16.3 101480 71
2008-09-01 07:39:34 51°11.549 2°42.114 8.6 35 16.3 101480 71
2008-09-01 07:39:39 51°11.559 2°42.134 7.8 22 16.3 101470 71
2008-09-01 07:39:43 51°11.566 2°42.15 5.9 38 16.3 101470 71
2008-09-01 07:39:49 51°11.578 2°42.173 7.6 20 16.3 101470 71
2008-09-01 07:39:54 51°11.586 2°42.194 8.2 35 16.3 101470 71
2008-09-01 07:39:59 51°11.597 2°42.212 8.5 28 16.3 101480 72
2008-09-01 07:40:04 51°11.606 2°42.231 7.3 31 16.3 101480 72
2008-09-01 07:40:09 51°11.615 2°42.252 7 25 16.3 101470 73
2008-09-01 07:40:14 51°11.626 2°42.27 7.2 36 16.3 101470 73
2008-09-01 07:40:19 51°11.634 2°42.29 6.7 20 16.4 101480 73
2008-09-01 07:40:24 51°11.643 2°42.309 8.6 36 16.4 101480 73
2008-09-01 07:40:29 51°11.652 2°42.329 5.8 30 16.4 101480 73
2008-09-01 07:40:34 51°11.662 2°42.348 8.4 40 16.4 101480 73
2008-09-01 07:40:38 51°11.669 2°42.364 8.5 30 16.3 101470 72
2008-09-01 07:40:44 51°11.68 2°42.387 6.4 42 16.3 101470 72
2008-09-01 07:40:49 51°11.689 2°42.406 7.4 30 16.4 101480 73
2008-09-01 07:40:54 51°11.698 2°42.426 8.3 35 16.4 101480 73
2008-09-01 07:40:58 51°11.706 2°42.44 7.8 22 16.4 101480 74
2008-09-01 07:41:04 51°11.717 2°42.464 6.7 39 16.4 101480 74
2008-09-01 07:41:09 51°11.728 2°42.482 7.8 25 16.4 101480 73
2008-09-01 07:41:14 51°11.735 2°42.503 4.3 270 16.4 101480 73
2008-09-01 07:41:19 51°11.746 2°42.52 8 266 16.3 101480 72
2008-09-01 07:41:23 51°11.754 2°42.536 6.2 34 16.3 101480 72
2008-09-01 07:41:29 51°11.765 2°42.558 8.1 26 16.3 101480 72
2008-09-01 07:41:34 51°11.775 2°42.577 6.5 33 16.3 101480 72
2008-09-01 07:41:39 51°11.785 2°42.596 7.2 24 16.3 101480 72
2008-09-01 07:41:44 51°11.795 2°42.614 7.9 40 16.3 101480 72
2008-09-01 07:41:49 51°11.805 2°42.633 7.9 28 16.3 101470 73
2008-09-01 07:41:54 51°11.815 2°42.652 3.8 264 16.3 101470 73
2008-09-01 07:41:59 51°11.824 2°42.671 5 25 16.4 101480 73
2008-09-01 07:42:04 51°11.834 2°42.689 7.7 42 16.4 101480 73
2008-09-01 07:42:09 51°11.844 2°42.707 5.8 261 16.4 101480 74
2008-09-01 07:42:14 51°11.853 2°42.726 7.5 270 16.4 101480 74
2008-09-01 07:42:19 51°11.863 2°42.744 8.2 270 16.4 101480 75
2008-09-01 07:42:24 51°11.874 2°42.762 5.9 41 16.4 101480 75
2008-09-01 07:42:29 51°11.883 2°42.781 7.1 269 16.5 101480 76
2008-09-01 07:42:34 51°11.894 2°42.798 7.9 36 16.5 101480 76
2008-09-01 07:42:39 51°11.903 2°42.817 8.4 23 16.5 101480 76
2008-09-01 07:42:44 51°11.913 2°42.835 7.2 270 16.5 101480 76
2008-09-01 07:42:49 51°11.923 2°42.852 4.8 265 16.5 101470 75
2008-09-01 07:42:54 51°11.933 2°42.871 6.3 266 16.5 101470 75
2008-09-01 07:42:59 51°11.943 2°42.889 7.3 269 16.4 101470 74
2008-09-01 07:43:04 51°11.953 2°42.907 6.4 270 16.4 101470 74
2008-09-01 07:43:09 51°11.963 2°42.925 8.6 269 16.5 101470 74
2008-09-01 07:43:14 51°11.973 2°42.942 7.3 41 16.5 101470 74
2008-09-01 07:43:19 51°11.982 2°42.962 6.1 269 16.5 101480 75
2008-09-01 07:43:24 51°11.994 2°42.978 8.5 38 16.5 101480 75
2008-09-01 07:43:29 51°12.002 2°42.998 6.7 24 16.5 101480 74
2008-09-01 07:43:34 51°12.014 2°43.015 5.7 37 16.5 101480 74
2008-09-01 07:43:39 51°12.022 2°43.035 5.5 22 16.5 101470 73
2008-09-01 07:43:44 51°12.033 2°43.052 6.7 270 16.5 101470 73
2008-09-01 07:43:49 51°12.041 2°43.073 7.4 20 16.4 101470 73
2008-09-01 07:43:54 51°12.053 2°43.089 6.5 39 16.4 101470 73
2008-09-01 07:43:59 51°12.061 2°43.11 5.6 30 16.4 101480 72
2008-09-01 07:44:04 51°12.072 2°43.126 7.7 43 16.4 101480 72
2008-09-01 07:44:09 51°12.081 2°43.145 7.9 23 16.5 101480 73
2008-09-01 07:44:14 51°12.09 2°43.164 6.5 269 16.5 101480 73
2008-09-01 07:44:19 51°12.101 2°43.181 5.7 269 16.5 101470 73
2008-09-01 07:44:24 51°12.109 2°43.201 9.1 37 16.5 101470 73
2008-09-01 07:44:29 51°12.12 2°43.218 9 19 16.4 101480 73
2008-09-01 07:44:34 51°12.128 2°43.238 7.4 36 16.4 101480 73